Temp
-24 -24 -25 -24 -25 -26 -26 -26 -26 -26 -26 -27 -26 -25 -23 -19 -18 -16 -16 -15 -14 -14 -15 -15 -14 -13 -13 -13 -13 -13 -12 -12 -13 -13 -12 -12 -12 -12 -12 -12 -12 -11 -11 -11
-24 -24 -25 -25 -26 -26 -26 -26 -25 -25 -26 -27 -27 -26 -26 -23 -19 -17 -16 -15 -14 -14 -15 -14 -14 -15 -13 -13 -13 -13 -13 -13 -13 -12 -12 -12 -13 -12 -12 -12 -12 -12 -12 -12
-23 -24 -25 -25 -26 -27 -26 -26 -26 -25 -26 -26 -26 -26 -26 -24 -21 -18 -17 -15 -14 -14 -14 -14 -13 -13 -12 -13 -13 -13 -13 -13 -13 -12 -12 -12 -12 -12 -12 -12 -12 -12 -13 -13
-23 -23 -23 -24 -25 -25 -25 -26 -26 -25 -25 -25 -26 -26 -25 -24 -23 -20 -17 -15 -15 -15 -14 -13 -13 -13 -13 -13 -13 -13 -13 -13 -13 -13 -12 -12 -12 -12 -12 -12 -13 -13 -13 -13
-23 -22 -23 -24 -25 -25 -25 -25 -25 -25 -25 -25 -25 -26 -24 -25 -23 -21 -17 -15 -14 -14 -14 -14 -13 -13 -13 -13 -13 -14 -14 -13 -13 -13 -12 -13 -13 -12 -12 -12 -12 -13 -13 -13
-23 -22 -22 -24 -25 -25 -25 -26 -25 -25 -25 -25 -25 -26 -25 -25 -23 -22 -20 -16 -14 -13 -16 -14 -14 -12 -14 -14 -14 -13 -13 -13 -13 -13 -13 -13 -13 -12 -12 -13 -12 -12 -13 -13
-22 -21 -21 -23 -24 -25 -25 -25 -25 -25 -25 -24 -25 -26 -24 -25 -25 -22 -20 -17 -15 -14 -14 -15 -14 -14 -14 -14 -13 -13 -13 -13 -13 -13 -13 -13 -13 -13 -13 -13 -13 -12 -12 -12
-21 -20 -22 -22 -23 -24 -24 -25 -25 -24 -25 -25 -25 -24 -24 -26 -25 -22 -21 -18 -16 -14 -14 -13 -14 -14 -14 -14 -14 -13 -14 -13 -14 -14 -13 -13 -13 -13 -13 -13 -12 -12 -12 -12
-21 -22 -22 -22 -22 -23 -24 -24 -24 -24 -25 -24 -24 -23 -23 -23 -23 -22 -20 -18 -15 -14 -14 -15 -14 -14 -15 -14 -14 -14 -14 -14 -14 -14 -14 -13 -14 -13 -13 -12 -12 -12 -12 -12
-22 -22 -22 -22 -23 -23 -24 -24 -24 -24 -24 -23 -23 -23 -23 -22 -22 -22 -20 -17 -15 -15 -14 -15 -14 -14 -14 -15 -15 -15 -14 -14 -14 -14 -14 -13 -13 -13 -13 -13 -13 -13 -12 -13
-21 -22 -22 -22 -23 -23 -23 -24 -24 -24 -23 -23 -22 -22 -22 -22 -22 -21 -20 -18 -16 -15 -15 -16 -15 -15 -15 -16 -15 -15 -14 -14 -14 -13 -13 -13 -13 -13 -12 -12 -13 -12 -12 -13
-21 -21 -21 -22 -22 -23 -23 -22 -21 -21 -22 -22 -23 -22 -22 -22 -21 -21 -20 -18 -17 -15 -16 -16 -16 -15 -15 -15 -14 -14 -14 -14 -13 -13 -13 -14 -13 -13 -13 -13 -13 -13 -13 -13
-20 -20 -21 -22 -22 -22 -21 -20 -20 -20 -20 -21 -21 -21 -21 -20 -20 -20 -20 -19 -18 -16 -16 -16 -15 -15 -15 -15 -15 -15 -14 -14 -14 -13 -13 -14 -14 -14 -14 -13 -13 -13 -13 -13
-21 -21 -22 -22 -22 -21 -21 -21 -20 -20 -19 -20 -20 -20 -20 -20 -20 -19 -18 -19 -18 -16 -15 -15 -15 -15 -15 -15 -14 -14 -14 -13 -13 -13 -13 -14 -14 -14 -14 -13 -13 -13 -12 -13
-21 -22 -21 -22 -22 -22 -22 -21 -21 -20 -19 -19 -19 -19 -20 -20 -19 -20 -19 -18 -18 -16 -15 -14 -14 -14 -15 -15 -15 -14 -14 -14 -14 -14 -14 -15 -15 -14 -14 -13 -13 -13 -13 -13
-20 -21 -21 -22 -22 -22 -22 -21 -21 -20 -19 -19 -19 -19 -20 -19 -20 -20 -18 -18 -18 -16 -15 -14 -14 -14 -14 -15 -15 -14 -14 -14 -14 -15 -15 -15 -15 -15 -14 -13 -14 -13 -13 -13
-20 -20 -21 -22 -22 -21 -20 -20 -19 -19 -19 -19 -19 -19 -18 -20 -19 -18 -19 -17 -18 -16 -16 -17 -16 -16 -15 -16 -15 -15 -15 -15 -15 -15 -15 -15 -15 -14 -14 -15 -14 -14 -14 -14
-20 -20 -20 -21 -20 -19 -21 -21 -19 -19 -19 -18 -19 -18 -18 -19 -18 -18 -17 -19 -18 -18 -17 -17 -17 -17 -17 -16 -16 -16 -16 -15 -15 -15 -15 -15 -15 -15 -15 -15 -14 -15 -14 -15
-20 -20 -20 -19 -20 -21 -21 -20 -20 -19 -19 -19 -18 -19 -18 -18 -18 -18 -18 -18 -18 -18 -17 -17 -17 -17 -17 -17 -16 -16 -16 -16 -15 -16 -16 -15 -15 -15 -15 -16 -16 -16 -17 -18
-19 -19 -19 -19 -20 -20 -20 -20 -20 -20 -20 -20 -20 -19 -19 -18 -17 -18 -18 -18 -18 -17 -17 -17 -18 -17 -17 -16 -16 -17 -17 -16 -16 -15 -16 -16 -16 -16 -17 -17 -17 -18 -17 -17
-19 -19 -19 -19 -19 -20 -20 -20 -20 -19 -20 -20 -20 -20 -19 -18 -18 -19 -19 -19 -19 -19 -18 -18 -18 -18 -18 -17 -16 -17 -17 -17 -17 -17 -17 -17 -18 -18 -17 -18 -17 -17 -17 -18
-19 -19 -19 -18 -19 -20 -20 -20 -18 -19 -19 -19 -19 -19 -19 -18 -19 -19 -19 -19 -19 -19 -19 -19 -19 -19 -19 -18 -18 -18 -18 -18 -18 -17 -17 -17 -17 -17 -18 -18 -18 -18 -18 -19
-19 -19 -19 -19 -19 -19 -19 -19 -19 -19 -19 -19 -19 -19 -19 -19 -19 -19 -19 -18 -18 -18 -18 -18 -18 -18 -18 -17 -18 -18 -18 -18 -19 -19 -18 -18 -18 -18 -18 -19 -19 -19 -20 -20
-18 -18 -18 -19 -19 -19 -19 -19 -19 -19 -19 -19 -19 -19 -19 -19 -19 -19 -18 -18 -18 -18 -18 -18 -18 -18 -18 -18 -18 -18 -18 -18 -18 -18 -18 -18 -19 -19 -19 -20 -20 -20 -20 -20
-18 -18 -18 -18 -19 -18 -18 -18 -19 -19 -19 -19 -19 -19 -19 -19 -19 -19 -18 -18 -18 -18 -18 -18 -19 -19 -19 -19 -19 -19 -19 -19 -19 -19 -19 -19 -20 -20 -20 -20 -20 -20 -20 -21
-18 -18 -18 -18 -19 -19 -18 -19 -19 -19 -19 -19 -19 -19 -19 -19 -19 -19 -18 -19 -19 -19 -19 -19 -19 -19 -19 -19 -19 -19 -19 -19 -19 -20 -20 -20 -20 -20 -20 -20 -20 -21 -21 -21
Height
5551 5543 5535 5531 5526 5522 5520 5518 5518 5522 5526 5523 5524 5525 5530 5539 5553 5570 5586 5597 5611 5629 5643 5653 5662 5669 5683 5693 5701 5709 5716 5724 5730 5737 5741 5745 5751 5755 5758 5762 5766 5769 5771 5773
5548 5538 5528 5520 5518 5514 5512 5509 5510 5513 5516 5510 5513 5512 5518 5526 5539 5555 5570 5586 5598 5613 5628 5639 5653 5667 5674 5685 5693 5701 5707 5716 5722 5729 5732 5737 5742 5747 5749 5753 5758 5762 5764 5764
5541 5531 5519 5511 5506 5503 5502 5502 5503 5503 5507 5505 5507 5504 5509 5517 5524 5536 5552 5571 5586 5602 5618 5630 5643 5659 5662 5672 5683 5692 5700 5710 5715 5721 5725 5731 5736 5739 5744 5748 5752 5755 5755 5754
5533 5522 5511 5505 5498 5494 5489 5496 5493 5495 5497 5496 5497 5493 5500 5507 5510 5520 5537 5554 5574 5592 5609 5621 5635 5650 5656 5667 5676 5684 5693 5702 5708 5713 5718 5723 5728 5731 5734 5735 5739 5743 5743 5745
5531 5518 5508 5502 5494 5489 5489 5488 5489 5489 5489 5488 5489 5488 5493 5497 5500 5511 5524 5543 5562 5578 5597 5613 5625 5639 5651 5658 5668 5676 5686 5694 5701 5706 5710 5715 5720 5723 5726 5728 5730 5733 5735 5736
5528 5519 5509 5500 5492 5487 5486 5487 5486 5484 5483 5481 5484 5485 5483 5487 5492 5500 5513 5530 5549 5563 5583 5601 5616 5626 5639 5652 5662 5670 5679 5688 5694 5699 5704 5710 5713 5716 5719 5720 5723 5725 5726 5726
5532 5521 5511 5503 5495 5489 5488 5486 5484 5482 5480 5480 5482 5478 5477 5478 5480 5488 5502 5517 5536 5553 5572 5593 5609 5623 5635 5648 5658 5665 5672 5681 5687 5693 5698 5704 5708 5710 5712 5713 5715 5716 5717 5718
5526 5520 5513 5505 5498 5493 5488 5486 5482 5480 5480 5479 5479 5475 5473 5471 5470 5476 5493 5511 5528 5546 5565 5588 5604 5616 5635 5644 5654 5661 5667 5675 5683 5688 5692 5697 5702 5703 5704 5706 5708 5708 5708 5708
5525 5521 5513 5507 5502 5498 5492 5489 5485 5482 5479 5475 5475 5474 5473 5470 5469 5471 5486 5503 5522 5538 5559 5577 5596 5611 5626 5640 5651 5658 5663 5670 5676 5681 5685 5688 5695 5695 5697 5700 5699 5699 5697 5697
5531 5523 5516 5511 5504 5499 5494 5489 5487 5483 5479 5476 5475 5472 5469 5465 5468 5473 5482 5500 5518 5536 5554 5571 5590 5606 5623 5636 5644 5649 5654 5661 5666 5670 5676 5680 5686 5688 5692 5691 5691 5691 5688 5685
5533 5525 5519 5513 5506 5499 5497 5492 5488 5483 5481 5478 5474 5472 5473 5469 5471 5480 5486 5501 5518 5537 5554 5575 5586 5603 5619 5630 5637 5643 5650 5655 5658 5662 5668 5673 5677 5679 5682 5683 5683 5683 5680 5677
5533 5527 5521 5517 5510 5504 5497 5493 5486 5482 5481 5478 5478 5479 5479 5481 5485 5490 5496 5506 5518 5535 5552 5569 5587 5599 5612 5625 5631 5638 5644 5648 5653 5657 5662 5665 5669 5671 5672 5674 5675 5674 5672 5668
5530 5526 5523 5517 5513 5507 5501 5494 5490 5488 5485 5481 5481 5483 5485 5489 5498 5504 5510 5518 5528 5538 5554 5571 5585 5596 5608 5618 5625 5632 5637 5642 5647 5651 5654 5657 5660 5662 5664 5666 5664 5666 5663 5659
5534 5526 5522 5517 5511 5505 5500 5496 5494 5492 5491 5489 5488 5488 5494 5499 5506 5512 5520 5530 5540 5547 5561 5576 5586 5596 5607 5615 5621 5627 5632 5637 5640 5643 5647 5649 5651 5652 5654 5654 5654 5652 5649 5646
5535 5529 5525 5521 5516 5510 5504 5502 5500 5498 5498 5499 5498 5499 5502 5508 5514 5519 5526 5535 5545 5554 5566 5577 5586 5595 5603 5611 5616 5621 5626 5631 5634 5637 5639 5642 5644 5644 5644 5644 5642 5642 5639 5638
5539 5533 5530 5526 5522 5517 5512 5507 5503 5502 5505 5508 5509 5511 5511 5522 5523 5530 5537 5544 5552 5561 5571 5578 5586 5594 5600 5606 5611 5616 5621 5625 5628 5631 5632 5634 5635 5636 5636 5633 5632 5630 5627 5623
5544 5540 5536 5532 5527 5524 5519 5511 5511 5510 5514 5517 5521 5520 5522 5532 5538 5544 5550 5558 5563 5568 5574 5584 5591 5594 5598 5603 5606 5611 5614 5618 5621 5623 5624 5625 5626 5627 5624 5623 5620 5617 5615 5612
5552 5545 5542 5539 5532 5524 5525 5524 5524 5523 5526 5527 5529 5530 5534 5544 5546 5554 5558 5566 5571 5576 5579 5582 5588 5595 5596 5600 5604 5607 5611 5613 5615 5616 5618 5618 5618 5617 5614 5611 5608 5605 5602 5599
5569 5561 5551 5542 5540 5541 5542 5539 5538 5537 5540 5540 5542 5546 5549 5552 5559 5563 5566 5570 5575 5579 5582 5586 5588 5593 5596 5598 5602 5604 5607 5609 5610 5611 5611 5610 5609 5609 5608 5601 5599 5596 5594 5592
5587 5579 5570 5564 5556 5555 5555 5554 5553 5553 5553 5557 5559 5561 5564 5566 5571 5571 5573 5576 5578 5580 5584 5587 5590 5592 5595 5597 5599 5601 5603 5605 5604 5604 5605 5604 5601 5599 5597 5596 5593 5591 5587 5585
5600 5598 5585 5577 5576 5575 5576 5575 5571 5568 5574 5575 5577 5578 5578 5578 5579 5580 5584 5586 5587 5588 5590 5591 5593 5596 5596 5597 5597 5598 5600 5600 5600 5600 5599 5597 5595 5593 5592 5588 5586 5583 5577 5572
5611 5606 5602 5589 5594 5591 5594 5596 5586 5583 5586 5589 5590 5590 5589 5588 5590 5592 5594 5595 5595 5596 5596 5596 5597 5600 5600 5599 5598 5597 5598 5598 5597 5596 5595 5592 5590 5586 5584 5582 5578 5573 5569 5563
5617 5616 5611 5608 5601 5607 5607 5604 5598 5598 5601 5602 5601 5601 5599 5598 5599 5599 5599 5599 5599 5599 5599 5599 5600 5600 5599 5598 5598 5597 5596 5595 5593 5591 5590 5587 5584 5580 5577 5574 5569 5563 5557 5551
5623 5621 5619 5618 5616 5615 5615 5612 5610 5609 5609 5608 5608 5607 5605 5605 5605 5605 5605 5604 5603 5603 5601 5601 5601 5599 5599 5598 5597 5596 5593 5591 5589 5586 5584 5581 5578 5573 5568 5563 5557 5551 5546 5540
5627 5626 5624 5623 5623 5622 5620 5618 5617 5616 5615 5614 5614 5613 5611 5610 5609 5609 5608 5607 5605 5604 5602 5601 5599 5598 5597 5595 5592 5590 5587 5585 5583 5580 5577 5573 5567 5562 5556 5550 5545 5539 5533 5527
5631 5629 5628 5627 5626 5625 5623 5621 5620 5620 5618 5616 5615 5614 5613 5611 5610 5609 5607 5606 5606 5605 5603 5601 5598 5596 5594 5591 5588 5584 5581 5578 5574 5568 5563 5557 5553 5549 5544 5539 5533 5527 5520 5513
Wind_Speed
31 33 32 31 26 27 29 30 31 24 22 31 35 45 55 69 75 77 75 79 77 74 62 67 65 47 51 56 55 53 53 52 50 42 43 45 43 42 40 37 36 37 36 35
35 43 40 36 32 32 30 31 29 18 17 30 35 39 42 52 70 72 75 81 80 75 68 67 64 51 49 53 58 54 55 52 51 49 40 43 46 44 45 43 42 40 39 40
50 44 37 34 35 35 33 32 28 27 21 28 28 40 41 44 60 71 77 80 82 78 73 69 68 61 42 50 56 57 56 50 50 48 53 42 40 42 45 45 44 42 42 43
50 42 36 32 31 30 35 30 32 28 28 32 25 33 27 38 50 66 77 84 82 81 76 71 66 68 32 51 50 54 58 54 50 44 50 48 41 36 35 48 55 51 50 49
42 41 37 33 28 21 24 23 24 26 28 33 34 40 18 22 42 60 76 82 84 83 80 75 69 73 49 43 55 55 55 54 50 47 42 43 43 43 40 37 36 49 53 51
37 37 38 33 26 20 19 17 21 23 19 30 25 33 27 18 27 44 61 78 85 84 76 74 73 76 70 53 48 51 53 51 47 48 47 41 38 36 35 31 33 39 47 54
29 33 34 34 27 18 16 15 17 18 18 19 17 28 19 15 14 37 54 72 83 83 80 76 70 73 68 65 50 48 48 52 49 48 46 44 36 37 36 35 37 43 41 43
39 34 33 29 25 22 16 14 13 14 15 18 19 11 8 12 16 33 39 60 80 82 78 73 72 71 61 55 50 49 43 48 48 44 44 43 41 41 39 36 42 44 45 48
49 32 28 28 23 20 21 20 17 17 15 18 17 21 8 12 14 32 38 53 78 82 77 72 70 68 65 58 45 50 39 40 43 44 46 47 42 42 40 40 42 45 49 50
46 34 34 30 18 20 18 23 21 24 28 27 26 16 26 5 12 31 37 43 68 78 75 70 67 64 59 49 39 43 48 42 44 43 43 44 42 42 36 37 41 45 37 44
43 34 33 31 29 26 27 27 26 27 30 30 24 27 15 5 14 23 29 34 53 71 70 62 61 56 47 44 50 49 41 42 44 43 40 38 36 33 32 32 42 42 43 44
41 28 26 27 27 27 28 29 30 26 20 19 17 19 10 25 25 24 32 34 38 56 58 56 47 51 46 44 43 45 44 42 42 43 41 38 33 33 33 34 37 35 49 54
41 33 21 23 27 27 29 25 25 19 23 29 26 23 19 29 21 21 30 27 23 38 49 48 44 44 44 42 39 39 40 40 40 41 40 38 38 38 37 39 40 46 51 55
34 25 22 28 28 32 30 28 24 19 23 28 25 25 24 21 16 23 32 36 21 28 31 40 41 38 39 35 37 38 37 37 38 38 39 38 38 40 41 40 45 55 56 55
28 13 17 25 24 24 26 22 21 18 20 24 37 23 30 22 18 26 36 40 35 30 34 37 35 35 38 36 37 38 39 35 35 38 38 39 38 38 39 43 49 54 54 55
25 14 15 19 23 21 21 21 20 26 29 23 26 23 39 31 20 35 26 34 30 30 29 31 31 33 36 37 37 38 39 39 35 35 40 42 42 42 42 52 61 54 57 53
26 13 13 19 23 23 27 34 33 35 30 26 25 35 42 24 30 24 30 25 20 33 23 20 18 24 30 33 34 35 38 41 40 39 39 41 37 43 53 52 50 49 53 55
36 30 27 31 38 48 43 44 35 37 30 33 33 36 41 29 25 22 26 17 17 12 18 12 21 16 21 23 24 27 30 33 34 35 34 38 42 49 52 54 52 55 57 52
47 44 41 44 49 51 53 56 53 52 48 38 43 38 36 34 24 22 21 16 14 12 11 14 10 18 14 16 14 17 27 28 30 33 36 37 41 48 50 41 39 33 31 23
42 47 57 62 65 65 65 63 61 58 57 55 52 50 43 34 15 17 14 18 14 10 14 14 14 13 14 20 20 21 21 25 28 33 39 39 32 34 28 27 30 29 26 28
39 40 50 57 58 57 57 56 59 60 57 52 50 47 43 24 28 37 36 32 29 23 22 22 17 12 12 18 24 20 24 23 15 13 19 23 17 15 19 23 27 32 37 39
38 39 40 51 47 49 45 44 50 52 46 43 41 39 39 39 35 31 28 25 25 22 21 20 18 14 12 10 7 5 1 3 8 12 15 19 21 24 29 34 34 35 36 37
36 37 37 37 43 35 34 36 41 40 38 34 32 30 28 28 29 29 28 27 26 24 22 21 19 14 12 10 11 13 15 19 20 21 22 23 25 26 29 32 35 38 40 42
29 30 31 31 34 33 30 30 31 31 32 33 33 31 31 30 28 26 25 24 23 21 20 18 16 15 13 12 11 12 13 17 19 22 25 27 30 31 34 36 38 41 44 47
26 24 26 27 24 23 25 27 27 25 24 24 24 25 24 24 24 22 22 22 22 20 18 17 16 15 16 17 19 20 22 24 26 28 30 32 33 36 39 42 45 47 50 52
19 20 21 20 18 19 21 21 20 18 18 20 21 22 23 23 22 21 21 20 18 17 17 17 18 19 20 21 23 25 27 29 32 34 38 41 43 45 46 47 49 51 53 55
Wind_Direction
332 325 305 302 297 298 293 286 275 267 259 257 251 245 239 232 226 224 219 218 221 217 210 214 219 223 214 217 220 223 227 232 234 234 242 236 231 235 236 238 241 245 245 246
338 334 323 312 295 286 282 279 279 281 259 256 248 249 245 234 230 224 219 217 218 216 209 212 212 219 235 221 217 221 227 231 232 227 232 237 230 233 237 238 239 245 249 252
338 332 316 299 286 281 278 275 272 267 252 258 268 258 253 236 228 225 218 213 216 218 209 209 207 208 211 216 217 218 225 231 235 233 236 239 238 239 245 245 245 246 248 251
339 337 329 331 317 284 275 261 263 266 257 252 254 281 263 248 231 222 215 213 211 215 214 210 205 205 205 208 213 221 224 226 236 241 238 241 243 246 246 244 239 240 246 248
344 347 346 350 340 318 300 286 280 277 267 263 251 263 277 265 237 223 215 212 210 211 215 211 207 202 213 202 213 219 223 225 230 237 239 240 244 251 256 255 252 246 246 251
348 351 353 357 353 327 314 298 298 296 281 277 276 256 287 278 239 227 221 209 209 211 207 210 209 205 208 215 221 222 221 222 227 233 240 243 251 249 253 260 258 258 258 254
352 354 352 357 10 345 339 327 312 296 289 309 282 268 335 310 246 219 218 210 208 209 207 210 209 215 215 218 220 222 223 223 225 230 237 242 247 255 261 267 270 265 259 260
358 348 357 353 23 26 26 4 343 327 323 320 301 304 305 273 206 198 208 213 205 208 208 205 209 217 218 215 216 223 230 224 227 234 239 245 246 262 258 264 272 272 265 263
8 5 357 354 0 10 17 2 348 344 334 333 348 348 333 18 219 180 195 208 203 205 206 206 206 212 214 214 222 221 227 226 230 236 241 246 247 253 262 266 264 274 281 271
6 5 3 6 351 355 0 337 335 330 326 337 1 29 348 315 227 177 183 197 202 204 207 204 206 211 210 207 212 219 226 229 229 233 238 243 245 251 257 260 261 269 286 272
2 2 7 6 4 356 344 335 325 320 323 331 13 20 33 21 149 170 159 172 197 202 207 202 205 208 211 209 217 224 230 230 231 233 238 242 243 247 240 269 267 256 274 275
360 10 2 359 356 356 350 345 5 10 17 30 13 30 65 98 97 112 138 156 178 198 203 203 202 204 208 210 217 224 229 231 233 237 237 238 238 246 249 258 265 262 271 279
357 5 1 351 353 354 351 17 15 12 24 40 36 66 121 108 105 107 110 114 151 184 198 199 197 204 205 206 212 221 228 231 232 237 236 239 238 244 250 258 277 268 267 272
357 0 5 2 350 353 9 25 26 32 36 47 47 79 103 115 131 146 131 125 131 157 191 197 197 206 210 204 212 222 229 229 233 236 239 239 243 248 252 249 260 264 265 258
5 4 9 8 7 7 13 19 37 52 76 61 80 84 94 119 124 136 137 129 130 147 174 190 193 203 212 211 213 221 228 232 234 237 240 240 244 251 257 254 259 261 265 262
14 26 6 9 35 33 35 41 38 67 92 86 81 72 104 101 111 120 114 124 135 152 172 184 194 206 214 219 223 227 234 238 242 246 245 245 250 256 263 266 275 265 268 261
18 20 28 51 56 64 69 63 72 84 93 101 101 91 94 91 116 115 119 120 131 139 150 166 165 211 216 217 228 231 235 240 245 249 250 248 249 258 262 271 273 266 272 275
40 56 71 68 71 72 71 70 86 92 89 97 101 94 97 105 111 109 105 102 108 130 159 169 195 196 228 225 228 233 239 242 246 252 254 260 261 256 266 279 281 282 287 277
61 64 70 74 78 84 84 77 80 79 80 85 89 86 92 96 94 111 105 106 119 139 146 142 165 178 210 218 229 243 243 248 254 255 244 266 267 264 272 277 277 269 264 251
68 71 77 84 83 81 80 81 83 84 83 85 86 90 93 97 124 110 102 99 131 170 171 183 206 223 231 231 238 240 244 258 251 253 256 258 267 271 272 258 251 252 263 290
71 73 78 79 82 84 86 87 91 90 88 88 89 91 96 101 95 97 90 94 106 118 125 122 124 145 191 228 219 223 242 251 242 234 249 252 250 275 284 311 306 307 313 314
66 68 71 80 78 82 86 88 83 85 88 90 90 87 82 80 84 85 78 79 83 83 85 92 96 98 103 100 103 66 161 304 285 277 291 293 304 309 312 307 306 305 299 298
71 70 69 71 79 76 75 73 75 79 77 81 80 73 80 70 67 64 59 58 56 52 52 44 41 37 31 17 2 348 343 338 334 328 317 310 305 302 299 298 299 299 301 300
73 70 70 73 77 74 72 74 75 72 64 56 55 54 50 47 46 43 40 40 40 34 31 29 24 17 8 359 349 334 326 320 315 312 307 303 302 302 303 303 303 304 303 302
79 77 71 72 71 65 59 59 56 53 51 45 42 41 41 37 37 33 27 24 22 18 13 7 3 354 345 337 331 326 325 319 313 309 306 305 306 307 307 307 306 304 303 302
66 68 72 78 76 72 64 56 48 43 41 35 29 24 21 17 16 14 10 7 3 358 353 347 339 333 327 323 319 318 315 311 310 312 313 313 310 307 306 305 304 303 302 301